STARLINK-34870 (65370 NORAD) Tracking and Keplerian Element Data

This shows tracking and keplerian element data for the satellite.

Feedback or suggestion? Click here.




ElementValue
Catalog65370
NameSTARLINK-34870
Epoch Orbit1705
Epoch Day353.79526749
Epoch Year2025
RAAN179.2361
Inclination53.1581
Eccentricity0.0001197
Argument of Perigee86.0768
Mean Anonmoly274.037
Mean Motion15.30204056
Decay Rate0.00014999
L11 65370U 25190V 25353.79526749 .00014999 00000+0 51746-3 0 9992
L22 65370 53.1581 179.2361 0001197 86.0768 274.0370 15.30204056 17050



Live tracking and technical data element details for STARLINK-34870 (NORAD 65370). STARLINK-34870 can be tracked NOW for your location showing map with azimuth and elevation plus other details from your city location.







IsCatalogInMostPopularTable: catalog: 65370, numindb: 2
Update: records affected: 1



GetName: 65370 STARLINK-34870

Hit Count: updated at: Sun, 08 Feb 2026 08:20:06 GMT